{"data":{"norad_id":63910,"intl_designator":"2025-095W","name":"STARLINK-34071","alt_names":[],"object_type":"PAYLOAD","status":"ACTIVE","operator":null,"country":"US","launch_date":"2025-05-10","launch_site_code":"AFETR","launch_vehicle":null,"mission":null,"orbit_class":"UNKNOWN","rcs_meters":null,"size_class":null,"mass_kg":null,"dimensions":null,"purposes":["comms"],"wikipedia_slug":null,"has_3d_model":false,"image_url":null,"decayed_at":null,"tle_current":{"epoch":"2026-05-25T04:20:24.484416Z","epoch_age_seconds":49644,"freshness":"FRESH","line1":"1 63910U 25095W   26145.18083894  .00014530  00000+0  53625-3 0  9995","line2":"2 63910  42.9993 104.4494 0000846 263.4792  96.5963 15.27594756 59478","mean_motion":15.27594756,"eccentricity":8.46e-5,"inclination_deg":42.9993,"raan_deg":104.4494,"arg_perigee_deg":263.4792,"mean_anomaly_deg":96.5963,"bstar":0.00053625,"rev_number":5947,"period_min":94.265838131746,"perigee_km":482.42445901716,"apogee_km":483.58536422861,"semimajor_km":6861.1419116229,"source":"CELESTRAK","updated_at":"2026-05-25T13:38:20.179192Z"}}}